Tracking 30101 objects as of 13-Dec-2024
HD Live streaming from Space Station
objects crossing your sky now

STARLINK-31353

Track STARLINK-31353 now!
10-day predictions
STARLINK-31353 is classified as:


NORAD ID: 58980
Int'l Code: 2024-031R
Perigee: 481.8 km
Apogee: 483.0 km
Inclination: 53.2 °
Period: 94.1 minutes
Semi major axis: 6853 km
RCS: Unknown
Launch date: February 15, 2023
Source: United States (US)
Launch site: AIR FORCE WESTERN TEST RANGE (AFWTR)
Your satellite tracking list
Your tracking list is empty




NASA's NSSDC Master Catalog

Two Line Element Set (TLE):
1 58980U 24031R   24347.72477579  .00002238  00000-0  87657-4 0  9990
2 58980  53.1587 236.1502 0000891  89.6156 270.4947 15.30194377 47311
Source of the keplerian elements: AFSPC